www.pogodaiklimat.ru
ПОГОДА в Петалуме
Время
и дата
15:35 20.07
15:55 20.07
16:15 20.07
16:35 20.07
16:55 20.07
17:15 20.07
17:35 20.07
17:55 20.07
18:15 20.07
18:35 20.07
18:55 20.07
19:15 20.07
19:35 20.07
19:55 20.07
20:15 20.07
20:35 20.07
20:55 20.07
21:15 20.07
21:35 20.07
21:55 20.07
22:15 20.07
22:35 20.07
22:55 20.07
23:15 20.07
23:35 20.07
23:55 20.07
00:15 21.07
00:35 21.07
00:55 21.07
01:15 21.07
01:35 21.07
01:55 21.07
02:15 21.07
02:35 21.07
02:55 21.07
03:15 21.07
03:35 21.07
03:55 21.07
04:15 21.07
04:35 21.07
04:55 21.07
05:15 21.07
05:35 21.07
05:55 21.07
06:15 21.07
06:35 21.07
06:55 21.07
07:15 21.07
Ветер
(напр.,м/с)
Видим. Явления Облачность Т
(С)
Тd
(С)
f
(%)
Тe
(С)
Тes
(С)
Комфортность P
(гПа)
Po
(гПа)
Тmin
(С)
Tmax
(С)
R
(мм)
R24
(мм)
S
(см)
З 5 14 км ясно +26.0 +11.0 39 +27 +34 жарко 1009.2
З 5 14 км ясно +26.0 +11.0 39 +27 +34 жарко 1008.8
нст 3
{6}
13 км ясно +25.0 +12.0 44 +27 +34 жарко 1008.8
З 4
{7}
16 км ясно +25.0 +12.0 44 +27 +32 жарко 1008.5
З 5 13 км ясно +24.0 +12.0 47 +26 +30 жарко 1008.5
ЮЗ 4 14 км ясно +24.0 +11.0 44 +25 +28 комфорт 1008.5
З 4 14 км ясно +24.0 +11.0 44 +25 +28 комфорт 1008.5
нст 2 14 км ясно +23.0 +11.0 47 +25 +30 комфорт 1008.8
СЗ 3 13 км ясно +23.0 +11.0 47 +25 +26 комфорт 1008.8
СЗ 2 14 км ясно +22.0 +11.0 50 +24 +25 комфорт 1009.2
нст 3 14 км ясно +21.0 +11.0 53 +23 +25 комфорт 1009.2
нст 3
{6}
14 км ясно +19.0 +11.0 60 +20 +20 1009.5
нст 2
{6}
14 км ясно +16.0 +11.0 72 +16 +16 1009.9
СЗ 4
{6}
13 км 2/2 600 м +15.0 +11.0 77 +14 +14 1010.2
СЗ 3 16 км ясно +14.0 +11.0 82 +13 +13 1010.2
СЗ 3 16 км ясно +13.0 +11.0 88 +12 +12 1010.5
СЗ 3 14 км ясно +13.0 +11.0 88 +12 +12 1010.5
нст 2 14 км ясно +13.0 +11.0 88 +12 +12 1010.5
СЗ 2 16 км ясно +13.0 +11.0 88 +12 +12 1010.2
нст 2 14 км ясно +13.0 +11.0 88 +12 +12 1010.2
СЗ 3 14 км ясно +13.0 +11.0 88 +12 +12 1010.2
нст 3 16 км ясно +13.0 +11.0 88 +12 +12 1010.2
З 4 13 км ясно +13.0 +11.0 88 +11 +11 1010.5
нст 2 6 км дымка ясно +13.0 +11.0 88 +12 +12 1010.5
СЗ 2 6 км дымка ясно +12.0 +11.0 94 +11 +11 1010.5
С 2 14 км ясно +12.0 +11.0 94 +11 +11 1010.5
СЗ 3 16 км ясно +11.0 +11.0 100 +9 +9 1010.5
СЗ 3 14 км ясно +11.0 +11.0 100 +9 +9 1010.2
С 3 14 км ясно +11.0 +11.0 100 +9 +9 1010.2
СЗ 2 14 км ясно +11.0 +11.0 100 +10 +10 1010.2
штиль 0 14 км ясно +11.0 +11.0 100 +10 +10 1010.2
нст 2 16 км 2/2 660 м +11.0 +11.0 100 +10 +10 1010.5
штиль 0 16 км 2/2 690 м +11.0 +11.0 100 +10 +10 1010.5
С 2 14 км 5/5 720 м +10.0 +10.0 100 +8 +8 1010.2
С 2 14 км 8/8 780 м +10.0 +10.0 100 +8 +8 1010.2
штиль 0 16 км 10/10 300 м +10.0 +10.0 100 +9 +9 1010.2
СЗ 2 16 км 10/10 270 м +11.0 +11.0 100 +10 +10 1010.2
штиль 0 16 км 10/10 210 м +11.0 +11.0 100 +10 +10 1010.2
штиль 0 16 км 10/10 210 м +11.0 +11.0 100 +10 +10 1010.2
штиль 0 16 км 10/10 210 м +11.0 +11.0 100 +10 +10 1010.5
З 2 16 км 10/10 210 м +11.0 +11.0 100 +10 +10 1010.5
ЮЗ 2 16 км 10/10 210 м +11.0 +11.0 100 +10 +10 1010.9
З 2 14 км 10/10 180 м +11.0 +11.0 100 +10 +10 1010.9
штиль 0 14 км 10/10 180 м +11.0 +11.0 100 +10 +10 1010.9
штиль 0 14 км 10/10 180 м +11.0 +11.0 100 +10 +10 1010.9
штиль 0 14 км 10/10 180 м +11.0 +11.0 100 +10 +10 1011.2
С 2 16 км 10/10 180 м +11.0 +11.0 100 +10 +10 1011.2
СЗ 2 14 км 10/10 180 м +12.0 +12.0 100 +11 +11 1011.2
Местоположение метеостанции Petaluma Municipal Airport: широта 38.2578 долгота -122.6053 высота над уровнем моря 27 м.
В архиве по умолчанию представлена погода в Петалуме за последние 1-2 суток. Обновление информации о фактической погоде в базе происходит ежечасно! Архивные данные за месяц целиком и за предыдущие месяцы Вы можете получить, выбрав интересующий диапазон дат из раскрывающегося списка и нажав кнопку "Ввод!".
Внимание! Архив погоды МЕТАР в базе сайта по станциям, не включенным в климатический монитор, хранится не более 60 дней. Нет смысла пытаться выбрать более раннюю дату.
*Определитесь, кто Вы:
Внимание! Время в таблицах - местное (без учета летнего времени). Для получения всемирного времени необходимо вычесть поправку, которая равна -8 ч.
Смотрите также архив погоды в соседних городах и на ближайших метеорологических станциях:
Партнеры нашего сайта:      
Пояснения к столбцам:
  • Ветер - указаны скорость ветра в м/с - средняя за 10 мин, порывы в срок и между сроками (в фигурных скобках) и направление, откуда дует ветер: С - северный,
  • СВ - северо-восточный, В - восточный, ЮВ - юго-восточный, Ю - южный, ЮЗ - юго-западный, З - западный, СЗ - северо-западный.
  • Видимость - горизонтальная дальность видимости в метрах или километрах. При видимости от 1 до 10 км при отсутствии осадков обычно наблюдается дымка, при ухудшении видимости до 1 км и менее - туман. В сухую погоду видимость может ухудшаться дымом, пылью или мглою.
  • Явления - указаны атмосферные явления, наблюдавшиеся в срок или в последний час перед сроком; фигурными скобками обозначены явления, наблюдавшиеся между сроками (за 1-3 часа до срока); квадратными скобками обозначены град или гололедные отложения с указанием их диаметра в мм.
  • Облачность - указаны через наклонную черту общая и нижняя облачность в баллах и высота нижней границы облаков в метрах; квадратными скобками обозначены формы облаков: Ci - перистые, Cs - перисто-слоистые, Cc - перисто-кучевые, Ac - высококучевые, As - высокослоистые, Sc - слоисто-кучевые, Ns - слоисто-дождевые, Cu - кучевые, Cb - кучево-дождевые. Подробнее классификацию облаков см. в Атласе облаков (PDF).
  • T - Температура воздуха - температура, измеренная на высоте 2 м над землей.
  • Td - Температура точки росы - температура, при понижении до которой содержащийся в воздухе водяной пар достигнет насыщения.
  • f - Относительная влажность воздуха - влажноcть воздуха, измеренная на высоте 2 м над землей.
  • Te - Эффективная температура - температура, которую ощущает одетый по сезону человек в тени. Характеристика душности погоды. При расчете учитывается влияние влажности воздуха и скорости ветра на теплоощущения человека.
  • Tes - Эффективная температура на солнце - температура, которую ощущает человек, с поправкой на солнечный нагрев. Характеристика знойности погоды. Зависит от высоты солнца над горизонтом, облачности и скорости ветра. Ночью, в пасмурную погоду, а также при ветре 12 м/с и более поправка равна нулю.
  • P - Атмосферное давление - приведенное к уровню моря атмосферное давление.
  • Po - Атмосферное давление - измеренное на уровне метеостанции атмосферное давление.
  • Tmin - Минимальная температура - минимум температуры воздуха на высоте 2 м над землей.
  • Tmax - Максимальная температура - максимум температуры воздуха на высоте 2 м над землей.
  • R - Количество осадков - Количество выпавших осадков за период времени, мм. При наведении курсора мыши на число - период времени, за который выпало указанное количество осадков.
  • R24 - Количество осадков - Количество выпавших осадков за 24 часа, мм.
  • S - Снежный покров - Высота снежного покрова, см. При наведении курсора мыши на число - состояние снежного покрова и степень покрытия местности в баллах.